[[[{"header":{"parameterUnit":"kt","parameterCategory":2,"dx":1,"dy":1,"la1":30.253999710083008,"la2":30.299108505249023,"lo1":-89.0895004272461,"lo2":-89.04439544677734,"nx":28,"ny":28,"refTime":"2022-10-12T21:00:00:Z","depth":0,"parameterNumber":1,"parameterNumberName":"U-component_of_WINDS"},"data":[-5.2432,-5.2607,-5.2588,-5.2779,-5.2794,-5.2921,-5.296,-5.3009,-5.3043,-5.3192,-5.3274,-5.3274,-5.3301,-5.3395,-5.3483,-5.3481,-5.3519,-5.3593,-5.3577,-5.3263,-5.3218,-5.3176,-5.3132,-5.3602,-5.3603,-5.3905,-5.3908,-5.391,-5.2195,-5.2212,-5.2308,-5.2389,-5.247,-5.2386,-5.2443,-5.2517,-5.2634,-5.2679,-5.276,-5.289,-5.2991,-5.2994,-5.3088,-5.3169,-5.3135,-5.3195,-5.3189,-5.3194,-5.2857,-5.2811,-5.322,-5.322,-5.322,-5.322,-5.322,-5.322,-5.176,-5.1866,-5.1904,-5.2008,-5.2044,-5.2098,-5.2196,-5.2193,-5.2288,-5.2384,-5.2345,-5.2477,-5.2518,-5.2625,-5.2656,-5.2758,-5.2688,-5.2749,-5.2764,-5.278,-5.2799,-5.2359,-5.2774,-5.2773,-5.2772,-5.2771,-5.277,0,-5.1434,-5.1411,-5.1503,-5.1589,-5.1665,-5.1731,-5.1788,-5.1849,-5.1795,-5.1876,-5.1992,-5.2055,-5.2181,-5.2288,-5.2374,-5.2394,-5.2317,-5.2309,-5.235,-5.237,-5.2375,-5.2372,-5.1822,-5.2297,-5.2293,-5.229,-5.2288,-5.2286,-5.0992,-5.1121,-5.1152,-5.1219,-5.1246,-5.1356,-5.1418,-5.1361,-5.1429,-5.1492,-5.159,-5.1697,-5.1779,-5.1969,-5.1966,-5.2062,-5.2025,-5.2208,-5.204,-5.2052,-5.2026,-5.2019,-5.203,-5.2243,-5.2248,-5.2253,-5.2256,0,-5.0745,-5.0714,-5.0907,-5.0926,-5.0935,-5.1072,-5.1088,-5.1194,-5.118,-5.1324,-5.1354,-5.1334,-5.145,-5.1417,-5.1545,-5.1524,-5.1748,-5.1711,-5.1731,-5.1722,-5.1881,-5.1866,-5.2407,-5.2473,-5.1987,-5.1992,-5.1996,0,-5.0355,-5.0527,-5.0471,-5.0585,-5.0772,-5.071,-5.0898,-5.0905,-5.0941,-5.1053,-5.096,-5.1068,-5.101,-5.1113,-5.1084,-5.1261,-5.1286,-5.1281,-5.1271,-5.1289,-5.129,-5.1326,-5.1303,-5.1246,-5.1243,-5.1241,-5.1239,0,-4.9971,-5.0143,-5.0328,-5.0362,-5.0402,-5.049,-5.0511,-5.0551,-5.0614,-5.069,-5.0729,-5.0823,-5.0875,-5.0949,-5.091,-5.0796,-5.1127,-5.0963,-5.1122,-5.1123,-5.1198,-5.1194,-5.168,-5.1235,-5.1234,-5.1234,-5.1233,0,-4.9652,-4.9729,-5.0003,-5.0032,-5.008,-5.0203,-5.0289,-5.0387,-5.0437,-5.0426,-5.0486,-5.0421,-5.0575,-5.0414,-5.0624,-5.0487,-5.0543,-5.0552,-5.0563,-5.0576,-5.0396,-5.0674,-5.1141,-5.1187,-5.0585,-5.0579,-5.0575,0,-4.922,-4.9488,-4.9437,-4.9699,-4.9818,-4.9703,-4.9839,-4.9886,-4.9882,-4.9983,-4.9979,-5.0096,-4.9969,-5.0002,-5.011,-5.0112,-5.0291,-5.0087,-5.0233,-5.0239,-5.0222,-5.0651,-5.0728,-5.1041,-5.0505,-5.0513,-5.0518,0,-4.8881,-4.8928,-4.8979,-4.9015,-4.9067,-4.9168,-4.9324,-4.9426,-4.9495,-4.9561,-4.969,-4.9855,-4.9765,-4.9821,-4.9779,-4.9894,-5.0168,-4.9784,-4.9784,-4.9853,-5.0469,-5.054,-5.0593,-5.0114,-5.0122,-5.0129,-5.0463,0,-4.8404,-4.8536,-4.8671,-4.8757,-4.883,-4.8993,-4.8958,-4.9039,-4.8989,-4.8982,-4.9173,-4.9207,-4.9315,-4.9367,-4.9322,-4.9596,-4.9546,-4.945,-4.9293,-4.9575,-4.9684,-4.9729,-4.9132,-4.9127,-4.9123,-4.912,0,0,-4.7998,-4.8185,-4.8126,-4.8275,-4.8333,-4.8213,-4.8391,-4.8433,-4.8524,-4.8567,-4.8478,-4.8717,-4.875,-4.8986,-4.9071,-4.9116,-4.9161,-4.9066,-4.9441,-4.9477,-4.951,-4.9627,-4.9674,-4.9113,-4.9111,-4.911,-4.9108,0,-4.7817,-4.7849,-4.8025,-4.8066,-4.8124,-4.8108,-4.815,-4.8188,-4.8192,-4.838,-4.8281,-4.8392,-4.8588,-4.8634,-4.8684,-4.9035,-4.8956,-4.9071,-4.927,-4.9401,-4.9443,-4.9479,-4.9603,-4.9648,-4.9099,-4.9099,-4.91,0,-4.7476,-4.7503,-4.7584,-4.771,-4.7748,-4.7876,-4.7699,-4.7843,-4.7937,-4.7803,-4.7992,-4.8008,-4.8069,-4.8298,-4.84,-4.8322,-4.877,-4.8625,-4.865,-4.8661,-4.8786,-4.8836,-4.888,-4.8296,-4.8294,-4.8291,0,0,-4.7325,-4.7447,-4.7459,-4.7669,-4.7699,-4.7678,-4.7743,-4.7701,-4.7757,-4.7781,-4.78,-4.7859,-4.797,-4.8047,-4.8151,-4.8407,-4.8415,-4.8527,-4.8565,-4.8596,-4.8624,-4.8758,-4.8807,-4.8281,-4.8281,-4.828,0,0,-4.7253,-4.7275,-4.7214,-4.7453,-4.7508,-4.7536,-4.7666,-4.7594,-4.7684,-4.7662,-4.7601,-4.7614,-4.7827,-4.7848,-4.7716,-4.8094,-4.7939,-4.797,-4.8073,-4.8121,-4.8158,-4.8149,-4.7544,0,0,0,0,0,-4.7051,-4.7271,-4.7216,-4.7251,-4.7412,-4.7566,-4.7586,-4.7539,-4.7428,-4.7532,-4.7536,-4.7447,-4.7763,-4.7645,-4.7682,-4.7831,-4.8151,-4.8174,-4.8196,-4.8389,-4.8439,-4.8481,0,0,0,0,0,0,-4.7064,-4.7107,-4.721,-4.7248,-4.7283,-4.7557,-4.7359,-4.7353,-4.7416,-4.7396,-4.7448,-4.7448,-4.7413,-4.7623,-4.7657,-4.7799,-4.7533,-4.816,-4.8179,-4.8197,-4.8406,-4.8447,-4.8482,0,0,0,0,0,-4.7074,-4.7108,-4.7379,-4.7244,-4.7275,-4.7265,-4.7351,-4.7343,-4.7392,-4.74,-4.7396,-4.7351,-4.7418,-4.7443,-4.7643,-4.7785,-4.7509,-4.7522,-4.8172,-4.8188,-4.8202,-4.8426,0,0,0,0,0,0,-4.7082,-4.7104,-4.7384,-4.7392,-4.7158,-4.7249,-4.7261,-4.7336,-4.739,-4.739,-4.7298,-4.7281,-4.7425,-4.7443,-4.7463,-4.7783,-4.7489,-4.7503,-4.7511,-4.8184,-4.8196,-4.8207,0,0,0,0,0,0,-4.7085,-4.7111,-4.7388,-4.7281,-4.7276,-4.7234,-4.7245,-4.7409,-4.7393,-4.7285,-4.7273,-4.729,-4.7395,-4.7444,-4.7459,-4.7717,-4.7475,-4.7487,-4.7496,-4.7501,-4.8194,-4.8204,0,0,0,0,0,0,-4.7095,-4.7118,-4.7278,-4.7275,-4.727,-4.7353,-4.7378,-4.7547,-4.7299,-4.7285,-4.7275,-4.7265,-4.7399,-4.7413,-4.7457,-4.7709,-4.7715,-4.7475,-4.7484,-4.749,-4.7493,0,0,0,0,0,0,0,-4.7103,-4.6963,-4.7338,-4.727,-4.7265,-4.7463,-4.7465,-4.7467,-4.7296,-4.7287,-4.7278,-4.7269,-4.7403,-4.7417,-4.7431,-4.7703,0,0,-4.7474,-4.748,0,0,0,0,0,0,0,0,-4.6952,-4.696,-4.7338,-4.734,-4.7341,-4.7463,-4.7465,-4.7467,-4.7295,-4.7287,-4.728,-4.7273,-4.7407,-4.7418,-4.7429,0,0,0,0,0,0,0,0,0,0,0,0,0,0,0,-4.7338,-4.734,0,-4.7463,-4.7465,-4.7466,-4.7294,-4.7288,-4.7281,-4.7276,-4.741,-4.7419,-4.7429,0,0,0,0,0,0,0,0,0,0,0,0,0,0,0,0,0,0,0,0,0,0,0,0,0,0,0,0,0,0,0,0,0,0,0,0,0,0,0,0,0,0,0,0,0,0,0,0,0,0,0,0,0,0,0,0,0,0,0,0,0,0,0,0,0,0,0,0,0]}],[{"header":{"parameterUnit":"kt","parameterCategory":2,"dx":1,"dy":1,"la1":30.253999710083008,"la2":30.299108505249023,"lo1":-89.0895004272461,"lo2":-89.04439544677734,"nx":28,"ny":28,"refTime":"2022-10-12T21:00:00:Z","depth":0,"parameterNumber":2,"parameterNumberName":"V-component_of_WINDS"},"data":[-8.6632,-8.6744,-8.6721,-8.6838,-8.6837,-8.6912,-8.6932,-8.6955,-8.6967,-8.7055,-8.7101,-8.709,-8.7093,-8.7143,-8.7191,-8.7185,-8.7206,-8.7261,-8.7244,-8.702,-8.6987,-8.6956,-8.6927,-8.7267,-8.7267,-8.7478,-8.748,-8.7482,-8.6462,-8.6462,-8.6518,-8.6557,-8.6604,-8.6537,-8.6562,-8.6606,-8.6676,-8.6694,-8.6739,-8.6815,-8.6872,-8.6857,-8.6908,-8.6959,-8.693,-8.6974,-8.6969,-8.697,-8.673,-8.6699,-8.6996,-8.6996,-8.6996,-8.6996,-8.6996,-8.6996,-8.6146,-8.6215,-8.6225,-8.6287,-8.63,-8.6327,-8.6389,-8.6374,-8.6429,-8.648,-8.6444,-8.6523,-8.6537,-8.6589,-8.6601,-8.6661,-8.6608,-8.665,-8.666,-8.667,-8.6683,-8.6375,-8.667,-8.6669,-8.6668,-8.6667,-8.6667,0,-8.5907,-8.5883,-8.5937,-8.5983,-8.6027,-8.6062,-8.609,-8.6128,-8.6071,-8.612,-8.6188,-8.6223,-8.6293,-8.6354,-8.6399,-8.6403,-8.6338,-8.6331,-8.6358,-8.6375,-8.6383,-8.6376,-8.5983,-8.6322,-8.6319,-8.6317,-8.6315,-8.6314,-8.5584,-8.567,-8.5671,-8.5712,-8.5722,-8.579,-8.5825,-8.5769,-8.5809,-8.5836,-8.59,-8.5961,-8.6007,-8.6122,-8.6104,-8.6157,-8.6126,-8.6257,-8.6134,-8.6145,-8.6124,-8.6118,-8.6124,-8.6282,-8.6286,-8.6289,-8.6292,0,-8.5403,-8.5367,-8.5493,-8.5487,-8.5488,-8.558,-8.5574,-8.5643,-8.5622,-8.5712,-8.573,-8.5698,-8.5767,-8.5728,-8.58,-8.5777,-8.5925,-8.5895,-8.5918,-8.5909,-8.602,-8.6009,-8.6394,-8.644,-8.609,-8.6093,-8.6096,0,-8.5112,-8.5228,-8.5166,-8.5242,-8.5367,-8.5308,-8.5434,-8.5429,-8.5441,-8.5512,-8.5432,-8.5501,-8.5441,-8.5504,-8.5471,-8.5586,-8.56,-8.5589,-8.5578,-8.5595,-8.5596,-8.5614,-8.5596,-8.5556,-8.5554,-8.5552,-8.5551,0,-8.4831,-8.4937,-8.5059,-8.5077,-8.5084,-8.5143,-8.5149,-8.5162,-8.5199,-8.524,-8.5262,-8.5316,-8.5345,-8.5386,-8.5344,-8.5261,-8.5484,-8.5362,-8.5472,-8.5473,-8.5522,-8.552,-8.5872,-8.5548,-8.5548,-8.5547,-8.5547,0,-8.459,-8.4634,-8.4819,-8.4821,-8.4851,-8.4934,-8.498,-8.5042,-8.5063,-8.5047,-8.5079,-8.5022,-8.5122,-8.5002,-8.5137,-8.5041,-8.5073,-8.5072,-8.5079,-8.5084,-8.495,-8.5151,-8.5492,-8.5525,-8.509,-8.5086,-8.5083,0,-8.4276,-8.4455,-8.4405,-8.4583,-8.466,-8.4563,-8.4653,-8.4675,-8.4662,-8.4724,-8.4709,-8.4782,-8.4685,-8.4702,-8.4775,-8.4762,-8.4888,-8.4745,-8.4832,-8.4836,-8.4826,-8.514,-8.5199,-8.5422,-8.5034,-8.5039,-8.5042,0,-8.4029,-8.4038,-8.4074,-8.409,-8.4111,-8.4176,-8.4281,-8.434,-8.4383,-8.4419,-8.4503,-8.4607,-8.4536,-8.4567,-8.4527,-8.4605,-8.4801,-8.4519,-8.4518,-8.4568,-8.5007,-8.5062,-8.51,-8.4756,-8.4762,-8.4767,-8.5003,0,-8.3666,-8.3753,-8.3848,-8.3894,-8.3939,-8.405,-8.401,-8.4061,-8.4017,-8.4001,-8.4126,-8.4137,-8.4199,-8.4234,-8.4193,-8.4384,-8.4345,-8.4271,-8.415,-8.4359,-8.4435,-8.4467,-8.4039,-8.4035,-8.4032,-8.4029,0,0,-8.3373,-8.3497,-8.3441,-8.3542,-8.3575,-8.3475,-8.3597,-8.3619,-8.3667,-8.3692,-8.3625,-8.3773,-8.3786,-8.3942,-8.4004,-8.4031,-8.406,-8.3991,-8.4261,-8.4287,-8.431,-8.4393,-8.4427,-8.4024,-8.4023,-8.4022,-8.4021,0,-8.3232,-8.3248,-8.337,-8.339,-8.3417,-8.3395,-8.3424,-8.3434,-8.343,-8.3555,-8.3471,-8.3542,-8.3665,-8.3687,-8.3715,-8.3971,-8.3903,-8.3993,-8.4142,-8.423,-8.426,-8.4287,-8.4374,-8.4407,-8.4013,-8.4013,-8.4014,0,-8.2978,-8.2986,-8.3041,-8.3117,-8.3135,-8.3219,-8.3081,-8.3178,-8.3239,-8.3126,-8.3252,-8.3253,-8.3281,-8.3437,-8.3506,-8.3446,-8.3761,-8.3657,-8.3676,-8.3682,-8.3765,-8.3802,-8.3834,-8.3407,-8.3405,-8.3403,0,0,-8.2862,-8.2944,-8.2935,-8.3084,-8.3101,-8.307,-8.3112,-8.3072,-8.31,-8.3112,-8.3112,-8.3141,-8.3211,-8.3258,-8.3323,-8.35,-8.35,-8.3584,-8.3613,-8.3636,-8.3655,-8.3745,-8.3781,-8.3396,-8.3396,-8.3396,0,0,-8.2806,-8.2802,-8.2753,-8.2921,-8.295,-8.2952,-8.3043,-8.2983,-8.3037,-8.302,-8.2958,-8.2964,-8.3109,-8.3115,-8.302,-8.3278,-8.316,-8.3182,-8.327,-8.3305,-8.3333,-8.3328,-8.2882,0,0,0,0,0,-8.2642,-8.2802,-8.2757,-8.278,-8.2877,-8.2976,-8.2988,-8.2941,-8.2856,-8.293,-8.292,-8.2846,-8.305,-8.2964,-8.2987,-8.3093,-8.33,-8.3317,-8.3333,-8.3487,-8.3525,-8.3557,0,0,0,0,0,0,-8.265,-8.2678,-8.2753,-8.2763,-8.2784,-8.297,-8.2817,-8.2808,-8.2847,-8.2831,-8.285,-8.2847,-8.2808,-8.2949,-8.2971,-8.3073,-8.2874,-8.3307,-8.3322,-8.3334,-8.35,-8.3531,-8.3557,0,0,0,0,0,-8.2657,-8.2679,-8.2847,-8.276,-8.2778,-8.2753,-8.281,-8.2802,-8.2831,-8.2818,-8.2812,-8.2792,-8.2813,-8.2827,-8.2962,-8.3064,-8.2859,-8.2867,-8.3316,-8.3328,-8.3338,-8.3515,0,0,0,0,0,0,-8.2661,-8.2672,-8.285,-8.2854,-8.2696,-8.2742,-8.2747,-8.2797,-8.2814,-8.281,-8.2756,-8.2743,-8.2818,-8.2828,-8.284,-8.3063,-8.2846,-8.2855,-8.286,-8.3325,-8.3334,-8.3342,0,0,0,0,0,0,-8.2659,-8.2676,-8.2852,-8.2774,-8.2769,-8.2732,-8.2737,-8.2845,-8.2816,-8.2751,-8.2741,-8.275,-8.28,-8.283,-8.2838,-8.3009,-8.2837,-8.2845,-8.285,-8.2854,-8.3332,-8.3339,0,0,0,0,0,0,-8.2665,-8.2679,-8.2773,-8.2769,-8.2763,-8.2803,-8.2826,-8.2928,-8.2749,-8.2752,-8.2732,-8.2724,-8.2804,-8.2811,-8.2838,-8.3006,-8.3008,-8.2837,-8.2843,-8.2847,-8.2849,0,0,0,0,0,0,0,-8.267,-8.2588,-8.2827,-8.2764,-8.2759,-8.2889,-8.289,-8.2891,-8.2748,-8.2741,-8.2734,-8.2727,-8.2791,-8.28,-8.2809,-8.3003,0,0,-8.2836,-8.284,0,0,0,0,0,0,0,0,-8.2581,-8.2587,-8.2827,-8.2828,-8.2829,-8.2889,-8.289,-8.2891,-8.2747,-8.2741,-8.2735,-8.273,-8.2794,-8.2801,-8.2808,0,0,0,0,0,0,0,0,0,0,0,0,0,0,0,-8.2827,-8.2828,0,-8.2889,-8.289,-8.289,-8.2746,-8.2741,-8.2737,-8.2732,-8.2796,-8.2802,-8.2807,0,0,0,0,0,0,0,0,0,0,0,0,0,0,0,0,0,0,0,0,0,0,0,0,0,0,0,0,0,0,0,0,0,0,0,0,0,0,0,0,0,0,0,0,0,0,0,0,0,0,0,0,0,0,0,0,0,0,0,0,0,0,0,0,0,0,0,0,0]}]]]